DELTA 1 DEB, 18671

Orbit data source: Space-Track

DELTA 1 DEB, 18671 is space debris in SSO originally from a launch on Tue, 06 Nov 1973 UTC launched from the Air Force Western Test Range (AFWTR). Debris objects in space refer to the collection of defunct objects orbiting the Earth. Examples of debris include non-operational satellites, rocket bodies, and fragments generated from explosions, collisions, or faulty payload assembly.

Loading next visibility...
Identifier
18671, 1973-086GZ
Orbit
SSO
Country
Flag of USUS
Related business
Manufacturer
Unknown
Mission
Spacecraft
Bus & Motor
Unknown
Mass
Unknown
Launch date (UTC)
1973-11-06 (52 years ago)
Launch vehicle
Unknown
Launch site
Air Force Western Test Range (AFWTR)
Object type
Payload
Rocket body
Debris
Shape & HBR
Unknown shape, 1.1 m
Radar Cross Section
Small (<0.1 m²)

Expand to show TLE details & history
Last TLE update: 4 days ago

TLE from 4 days ago
0 DELTA 1 DEB
1 18671U 73086GZ  25293.41754140  .00000163  00000-0  15143-2 0  9990
2 18671 101.8244 250.5981 0111312 101.7105  23.8699 12.39803245606713
Epoch: 2025-10-20T10:01Z
TLE epoch observation values (Epoch: 2025-10-20T10:01:15.576Z)
Latitude
52.35676°
Longitude
-93.16737°
Altitude
1,435.595 km
Speed
7.185 km/s
True Right ascension
05h 45m 04s
True Declination
52° 12' 17"
Sunlit
Object was in daylight at epoch
Visualization orbit readout
Latitude
Unknown
Longitude
Unknown
Altitude
Unknown
Speed
Unknown
Apparent Right ascension
Unknown
Apparent Declination
Unknown
Sunlit
N/A
Visualization observer readout
Local Sidereal Time
04:52:19
Azimuth
Unknown
Elevation
Unknown
Doppler factor
Unknown
Orbital elements
Apogee altitude
1,592.75 km
Perigee altitude
1,417.253 km
Semi-major axis
7,883.138 km
Eccentricity
0.01113
Inclination
101.8244°
RAAN
250.5981°
Arg. of periapsis
101.7105°
True anomaly
24.3927°
Mean anomaly
23.8699°
Eccentric anomaly
24.13063°
Mean motion
3.10095 °/min
Orbital period
116.09 mins
BSTAR
0.0015143
Loading maneuver chart data...
Computing Atmospheric mass density...
Loading historical data...
Loading historical data...
Loading historical data...
Loading historical data...
Loading historical data...
Loading historical data...
Loading historical data...

Documentation

Showing up to 5 results
|